Flag for U.S.A. Weather past 2 weeks in Lowell, Massachusetts, U.S.A.

Now
86 °F

Partly sunny.


Feels Like: 85 °F
Forecast: 63 / 85 °F
Wind: 13 mph from West

Location: Hanscom Field

Current Time: Aug 1, 2015 at 3:17:54 PM

Latest Report: Aug 1, 2015 at 2:56 PM


Visibility: 10 mi

Pressure: 29.74 "Hg

Humidity: 36%

Dew point: 56 °F

Location of LowellLocation

Historic Weather in Lowell — Graph

°F

Lowell temperature yesterday

Maximum temperature yesterday: 87 °F (at 2:56 PM)
Minimum temperature yesterday: 63 °F (at 11:56 PM)
Average temperature yesterday: 76 °F

Past Weeks' High & Low Weather Summary

 TemperatureHumidityPressure
High92 °F (Jul 29, 3:56 PM)100% (Jul 27, 6:04 AM)30.09 "Hg (Jul 27, 6:04 AM)
Low54 °F (Jul 25, 4:56 AM)31% (Jul 31, 3:56 PM)29.56 "Hg (Jul 21, 6:56 PM)
Average73 °F71%29.88 "Hg
* Reported Jul 17 1:56 PM — Aug 1 1:56 PM, Lowell, Weather by CustomWeather, © 2015

Note: Actual official high and low records may vary slightly from our data, if they occured in-between our weather recording intervals... More about our weather records

Advertising

Lowell weather history for previous 24 hours

 ConditionsComfort  
Time TempWeatherWind HumidityBarometerVisibility
1:56 PM
Sat, Aug 1
85 °FSunny.10 mph37%29.74 "Hg10 mi
12:56 PM83 °FBroken clouds.N/A41%29.76 "Hg10 mi
11:56 AM84 °FScattered clouds.6 mph46%29.77 "Hg10 mi
10:56 AM82 °FPartly sunny.8 mph49%29.77 "Hg10 mi
9:56 AM79 °FSunny.N/A50%29.77 "Hg10 mi
8:56 AM77 °FSunny.6 mph56%29.78 "Hg10 mi
7:56 AM73 °FSunny.9 mph62%29.77 "Hg10 mi
6:56 AM70 °FPassing clouds.3 mph66%29.77 "Hg10 mi
5:56 AM65 °FPassing clouds.5 mph76%29.76 "Hg10 mi
4:56 AM64 °FMostly cloudy.No wind78%29.77 "Hg10 mi
3:56 AM61 °FPassing clouds.No wind83%29.78 "Hg10 mi
2:56 AM61 °FClear.No wind87%29.79 "Hg10 mi
1:56 AM61 °FClear.No wind83%29.80 "Hg10 mi
12:56 AM64 °FClear.No wind78%29.82 "Hg10 mi
11:56 PM
Fri, Jul 31
63 °FClear.No wind78%29.82 "Hg10 mi
10:56 PM65 °FClear.3 mph73%29.82 "Hg10 mi
9:56 PM72 °FClear.5 mph57%29.81 "Hg10 mi
8:56 PM74 °FSunny.5 mph53%29.80 "Hg10 mi
7:56 PM78 °FSunny.N/A43%29.79 "Hg10 mi
6:56 PM81 °FPassing clouds.10 mph38%29.78 "Hg10 mi
5:56 PM84 °FPassing clouds.N/A33%29.77 "Hg10 mi
4:56 PM84 °FSunny.14 mph31%29.78 "Hg10 mi
3:56 PM86 °FScattered clouds.17 mph31%29.78 "Hg10 mi
Weather by CustomWeather, © 2015

See weather overviewHow to use our weather pages